Regional Weather Roundup
Issued by NWS

Home | Current Version | Previous Version | Graphics & Text | Print | Product List | Glossary On
Versions: 1 2 3 4 5 6 7 8 9 10 11 12 13 14 15 16 17 18 19 20 21 22 23 24 25 26 27
000
ASUS45 KBOU 212007
RWRCO

WEATHER ROUNDUP FOR COLORADO
NATIONAL WEATHER SERVICE DENVER/BOULDER CO
100 PM MST TUE FEB 21 2017

NOTE: "FAIR" INDICATES FEW OR NO CLOUDS BELOW 12000 FEET WITH NO
SIGNIFICANT WEATHER AND/OR OBSTRUCTIONS TO VISIBILITY.

COZ001>005-013-030-031-212100-
...NORTHWEST COLORADO...

CITY           SKY/WX    TMP DP  RH WIND       PRES   REMARKS
CRAIG          FAIR      55  31  39 SW25G32   30.11F
HAYDEN         FAIR      48  27  43 SW22G30   30.11F
MEEKER         FAIR      54  34  46 S18G28    30.15F
MOUNT WERNER   NOT AVBL
STEAMBOAT SPGS CLOUDY    47  27  44 CALM      30.15F
WALDEN         NOT AVBL
$$

COZ006>008-011-212100-
...WEST CENTRAL VALLEYS...

CITY           SKY/WX    TMP DP  RH WIND       PRES   REMARKS
GRAND JUNCTION FAIR      61  37  41 W6        30.17F
MONTROSE       FAIR      58  32  37 NE6       30.22F
EAGLE          MOSUNNY   55  28  35 W16G25    30.19F
RIFLE          FAIR      57  35  43 W17       30.17F
DELTA          CLOUDY    60  34  36 N3        30.22F
NUCLA          FAIR      59  32  36 SW9G16    30.31F
$$

COZ017>023-064>068-212100-
...SOUTHWEST COLORADO...

CITY           SKY/WX    TMP DP  RH WIND       PRES   REMARKS
DURANGO        FAIR      52  32  46 W12       30.34F
CORTEZ         FAIR      57  37  47 S10       30.32F
PAGOSA SPRINGS FAIR      48  28  45 S7        30.36F
TELLURIDE      FAIR      49  15  25 W12       30.36F
WOLF CREEK PAS FAIR      30  23  74 SW16      30.48F WCI  19
$$

COZ009-010-012-014-032>034-037-058>063-212100-
...CENTRAL COLORADO...

CITY           SKY/WX    TMP DP  RH WIND       PRES   REMARKS
ASPEN          FAIR      52  19  27 SE9       30.20F
BUENA VISTA    FAIR      53  18  24 W3        30.23F
COPPER MTN     NOT AVBL
BERTHOUD PASS  CLOUDY    28  18  64 NW15G28   30.31F WCI  17
COTTONWOOD PAS FAIR      52  12  20 S12G20    30.29F
GUNNISON       FAIR      33  23  66 S5        30.33F WCI  29
KREMMLING      FAIR      54  28  37 SW12G22   30.19F
LEADVILLE      FAIR      39  14  36 S8        30.26F
MONARCH PASS   PTSUNNY   32  21  64 SW32      30.48F WCI  17
SALIDA         FAIR      56  23  27 S13G22    30.31F
SUNLIGHT       NOT AVBL
WILKERSON PASS FAIR      41  18  38 SW14G24   30.35F
$$

COZ069>075-212100-
...SAN LUIS VALLEY/SANGRE DE CRISTO MOUNTAINS...

CITY           SKY/WX    TMP DP  RH WIND       PRES   REMARKS
ALAMOSA        FAIR      49  26  41 SW3       30.30F
LA VETA PASS   FAIR      46  21  36 NE15G26   30.36F
SAGUACHE       FAIR      50  25  37 S7        30.32F
$$

COZ035-036-038>040-212100-
...NORTHERN COLORADO FRONT RANGE...

CITY           SKY/WX    TMP DP  RH WIND       PRES   REMARKS
DENVER INTL AP FAIR      72   5   7 W24       30.01F
DMNS CITY PARK   N/A     71  11  10 SW16      30.01F
AURORA         MOSUNNY   71  11  10 W15G23    30.04F
FRONT RANGE AP MOSUNNY   73   9   8 W16G33    30.03F
ERIE MUNI ARPT FAIR      71  13  10 W18G28    30.02F
BOULDER MUN AP FAIR      68  21  17 W15       30.04F
CENTENNIAL     FAIR      69   7   9 W23G31    30.05F
BROOMFIELD     MOSUNNY   68  12  11 MISG      30.05
FORT COLLINS   FAIR      67  21  17 W31G43    30.00F
LONGMONT       FAIR      72  18  13 W13G24    30.04F
$$

COZ041-046-047-076>085-087-088-212100-
...PIKES PEAK/PALMER DIVIDE AND SOUTHERN FOOTHILLS...

CITY           SKY/WX    TMP DP  RH WIND       PRES   REMARKS
COLO. SPRINGS  FAIR      70   5   8 NW17      30.09F
A. F. ACADEMY  FAIR      65   9  11 W20G25    30.11F
SCHRIEVER AFB  FAIR      69   4   8 W17G24    30.10F
ELLICOTT       FAIR     N/A N/A N/A NW20G30   30.07F
FALCON         FAIR      66   6   9 W26G35    30.14S
FORT CARSON    NOT AVBL
LIMON          FAIR      74   5   7 NW18      30.03F
MONUMENT HILL  FAIR      63  10  13 W24G33    30.14F
TRINIDAD       FAIR      74  -1   5 N24G32    30.08F
$$

COZ042>045-048>051-090-091-212100-
...NORTHEAST COLORADO...

CITY           SKY/WX    TMP DP  RH WIND       PRES   REMARKS
GREELEY ARPT   FAIR      70  22  16 W26G33    29.99F
AKRON          FAIR      71  19  14 W22G30    29.98F
BURLINGTON     FAIR      75  21  13 SW8       30.00F
WRAY           NOT AVBL
STERLING       FAIR      75  21  13 W26G32    29.93F
HOLYOKE        FAIR      79  23  12 W22G32    29.92F
FORT MORGAN    FAIR      71  18  13 W29G38    29.97F
$$

COZ086-089-092>099-212100-
...SOUTHEAST COLORADO...

CITY           SKY/WX    TMP DP  RH WIND       PRES   REMARKS
PUEBLO         FAIR      74  15  10 W29G37    30.04F
LA JUNTA       FAIR      78  17  10 W14G24    30.01F
LAMAR          FAIR      78  19  11 W8        29.99F
SPRINGFIELD      N/A     75  21  13 NW5       30.04F
$$




USA.gov is the U.S. government's official web portal to all federal, state and local government web resources and services.